Location: Navalespino
(40.5894°N, 4.2660°W)
Time: 19:32:30
(UTC+00:00)

Cosmos 2227 Rocket - Pass Details

Date: 18 April 2024
Orbit: 837 x 846 km, 71.0° (Epoch: 17 May)

Event Time Altitude Azimuth Distance (km) Brightness Sun altitude
Rises 21:46:16 0° 338° (NNW) 3,414 6.4 -27.7°
Reaches altitude 10° 21:48:45 10° 340° (NNW) 2,475 5.5 -28.0°
Enters shadow 21:54:01 69° 32° (NNE) 905 2.3 -28.6°
